User: anonymous
Location: Oshawa
(43.9000°N, 78.8670°W)
Time: 09:43:09
(UTC-04:00)
Language:

Cosmos 1953 Rocket - Orbit

View from above orbital plane
View from above orbital plane
View from above satellite
View from above satellite

Ground track
Ground track

The orbit data is extracted from the following two-line orbital elements,

1 19211U 88050B   14104.97482588  .00000450  00000-0  53167-4 0  2051
2 19211 082.5290 206.2093 0021114 339.1837 070.2134 14.82354922395012
Epoch (UTC): 14 April 2014 23:23:44
Eccentricity: 0.0021114
inclination: 82.5290°
perigee height: 607 km
apogee height: 636 km
right ascension of ascending node: 206.2093°
argument of perigee: 339.1837°
revolutions per day: 14.82354922
mean anomaly at epoch: 70.2134°
orbit number at epoch: 39501

The dashed part of the orbit path shows where the satellite is in the earth's shadow,  

DLR